www.pogodaiklimat.ru

Погода и климат >> Архив погоды >> Финляндия >> Липери Туискаванлуото


ПОГОДА в Липери Туискаванлуото

  • Прогноз погоды в Липери Туискаванлуото
  • Монитор погоды в Липери Туискаванлуото

АРХИВ ПОГОДЫ в Липери Туискаванлуото

Время (UTC), дата Ветер
(напр.,м/с)
 
Видим.   Явления Облачность Т
(С)
Тd
(С)
f
(%)
Тe
(С)
Тes
(С)
Комфортность P
(гПа)
Po
(гПа)
Тmin
(С)
Tmax
(С)
R
(мм)
R24
(мм)
S
(см)
22 13.06 В 7 н/о н/о +13.0 +7.9 71 +10 +10 1021.4 1011.7
23 13.06 В 6-8
{8}
н/о н/о +13.1 +8.0 71 +11 +11 1021.0 1011.3
00 14.06 В 6-7
{8}
н/о н/о +13.1 +7.5 69 +11 +11 1020.7 1011.0
01 14.06 ЮВ 7 н/о н/о +13.1 +7.9 71 +11 +11 1020.0 1010.4
02 14.06 ЮВ 7 н/о н/о +13.1 +8.0 71 +11 +11 1019.5 1009.8
03 14.06 ЮВ 4-4
{6}
н/о н/о +12.7 +8.3 75 +11 +11 1018.8 1009.2
04 14.06 ЮВ 4 н/о н/о +12.8 +8.1 73 +11 +11 1018.8 1009.2
05 14.06 СВ 5-5
{5}
н/о н/о +12.8 +7.9 72 +11 +11 1019.5 1009.8
06 14.06 В 2-2
{5}
н/о н/о +13.8 +8.2 69 +13 +13 1019.1 1009.5 +12.6 +13.8
07 14.06 Ю 1-2
{2}
н/о н/о +14.4 +8.2 66 +15 +15 1019.3 1009.7
08 14.06 ЮЗ 3 н/о н/о +14.2 +8.3 68 +13 +13 1019.4 1009.8
09 14.06 ЮЗ 4-5
{5}
н/о н/о +15.2 +9.0 66 +14 +14 1019.0 1009.4
10 14.06 ЮЗ 4 н/о н/о +15.8 +9.0 64 +15 +15 1018.7 1009.2
11 14.06 ЮЗ 4 н/о н/о +16.8 +9.3 61 +16 +16 1018.4 1008.9
12 14.06 ЮЗ 4-6
{6}
н/о н/о +17.6 +9.8 60 +17 +17 1018.2 1008.7
13 14.06 З 4-5
{6}
н/о н/о +18.1 +10.4 61 +18 +18 1017.8 1008.4
14 14.06 ЮЗ 4 н/о н/о +18.0 +10.8 63 +18 +18 1017.2 1007.7
15 14.06 ЮЗ 3-3
{4}
н/о н/о +18.4 +11.1 62 +19 +19 1016.7 1007.3
16 14.06 ЮЗ 4 н/о н/о +17.9 +11.3 65 +18 +18 1016.4 1007.0
17 14.06 ЮЗ 5 н/о н/о +17.1 +10.2 64 +16 +16 1016.1 1006.6
18 14.06 ЮЗ 4-5
{6}
н/о н/о +16.6 +8.7 60 +16 +16 1015.4 1006.0 +13.8 +18.5
19 14.06 ЮЗ 4 н/о н/о +16.3 +9.0 62 +16 +16 1015.3 1005.9
20 14.06 ЮЗ 5 н/о н/о +16.1 +9.4 64 +15 +15 1015.2 1005.7
21 14.06 ЮЗ 4-5
{6}
н/о н/о +15.6 +9.6 67 +15 +15 1014.9 1005.4
22 14.06 ЮЗ 5-5
{6}
н/о н/о +15.5 +9.9 69 +14 +14 1014.7 1005.2
23 14.06 Ю 4 н/о н/о +15.0 +9.8 71 +14 +14 1014.8 1005.2
00 15.06 ЮЗ 5-6
{6}
н/о н/о +13.9 +11.3 84 +12 +12 1014.7 1005.1
01 15.06 З 4 н/о н/о +13.1 +11.8 92 +11 +11 1014.4 1004.8
02 15.06 СЗ 2-3
{4}
н/о н/о +12.8 +12.0 95 +12 +12 1014.0 1004.4
03 15.06 СЗ 2-2
{3}
н/о н/о +13.0 +11.8 92 +12 +12 1013.9 1004.3
04 15.06 СЗ 2 н/о н/о +12.9 +11.9 94 +12 +12 1013.9 1004.3
05 15.06 СЗ 2 н/о н/о +13.0 +12.1 94 +12 +12 1014.0 1004.4
06 15.06 СВ 3-4
{4}
н/о н/о +13.5 +11.3 87 +12 +12 1014.0 1004.5 +12.8 +16.6
07 15.06 В 2-2
{4}
н/о н/о +13.9 +11.0 83 +13 +13 1014.2 1004.7
08 15.06 ЮЗ 1 н/о н/о +14.9 +10.8 76 +15 +15 1014.4 1004.8
09 15.06 ЮЗ 3-4
{4}
н/о н/о +14.7 +11.0 78 +14 +14 1014.3 1004.8
10 15.06 Ю 4-5
{5}
н/о н/о +15.2 +11.2 77 +14 +14 1014.5 1005.0
11 15.06 Ю 4 н/о н/о +16.7 +12.8 78 +16 +16 1014.7 1005.2
12 15.06 Ю 5-6
{6}
н/о н/о +16.9 +12.8 77 +16 +16 1014.4 1004.9
13 15.06 Ю 6 н/о н/о +16.7 +12.5 76 +16 +16 1014.3 1004.9
14 15.06 Ю 5-6
{7}
н/о н/о +17.0 +12.9 77 +16 +16 1014.2 1004.8
15 15.06 ЮЗ 4-5
{6}
н/о н/о +17.3 +13.5 78 +17 +17 1014.1 1004.7
16 15.06 ЮЗ 5 н/о н/о +17.5 +13.4 77 +17 +17 1014.1 1004.6
17 15.06 ЮЗ 5 н/о н/о +17.4 +13.2 76 +17 +17 1014.1 1004.6
18 15.06 ЮЗ 4-4
{5}
н/о н/о +17.2 +14.5 84 +17 +17 1014.1 1004.6 +13.5 +17.7
19 15.06 ЮЗ 5 н/о н/о +17.3 +14.0 81 +17 +17 1014.0 1004.5
20 15.06 ЮЗ 5 н/о н/о +16.8 +13.8 82 +16 +16 1014.0 1004.5
21 15.06 З 5-6
{6}
н/о н/о +16.0 +13.6 86 +15 +15 1013.9 1004.4
22 15.06 ЮЗ 5 н/о н/о +15.6 +13.5 87 +14 +14 1013.9 1004.4
23 15.06 З 5-6
{6}
н/о н/о +15.3 +12.7 84 +14 +14 1013.8 1004.3
00 16.06 З 5-7
{7}
н/о н/о +15.1 +12.1 82 +14 +14 1013.7 1004.2
01 16.06 З 4 н/о н/о +14.7 +11.9 83 +13 +13 1013.7 1004.2
02 16.06 З 3 н/о н/о +14.7 +11.9 83 +14 +14 1013.5 1004.0
03 16.06 З 3-4
{4}
н/о н/о +15.4 +12.2 81 +15 +15 1013.6 1004.1
04 16.06 СЗ 2 н/о н/о +17.8 +11.9 68 +18 +18 1013.5 1004.0
05 16.06 СЗ 2-1
{3}
н/о н/о +17.4 +11.6 69 +18 +18 1013.5 1004.1
06 16.06 СЗ 4-6
{7}
н/о н/о +19.0 +10.8 59 +20 +20 1013.6 1004.2 +14.6 +19.0
07 16.06 З 4-4
{5}
н/о н/о +18.7 +11.9 65 +19 +19 1013.5 1004.1
08 16.06 СЗ 5 н/о н/о +19.9 +9.5 51 +21 +21 комфорт 1013.5 1004.1
09 16.06 СЗ 6-8
{10}
н/о н/о +20.6 +7.4 42 +21 +21 комфорт 1013.1 1003.8
10 16.06 З 6 н/о н/о +20.9 +8.0 43 +22 +22 комфорт 1012.8 1003.5
11 16.06 З 7 н/о н/о +20.8 +8.9 46 +22 +22 комфорт 1012.4 1003.1
12 16.06 З 6-8
{8}
н/о н/о +21.3 +8.7 44 +22 +22 комфорт 1012.1 1002.8
13 16.06 З 6-7
{9}
н/о н/о +21.2 +9.0 46 +22 +22 комфорт 1011.8 1002.5
14 16.06 З 6-8
{8}
н/о н/о +22.1 +8.5 42 +23 +23 комфорт 1011.3 1002.1
15 16.06 З 7-9
{9}
н/о н/о +22.0 +9.7 46 +24 +24 комфорт 1010.9 1001.7
16 16.06 З 6-8
{9}
н/о н/о +21.7 +12.0 54 +24 +24 комфорт 1010.9 1001.6
17 16.06 З 6 н/о н/о +21.2 +11.0 52 +23 +23 комфорт 1010.8 1001.5
18 16.06 З 5-6
{7}
н/о н/о +20.3 +12.4 60 +22 +22 комфорт 1010.6 1001.3 +18.5 +23.0
19 16.06 З 4 н/о н/о +19.2 +13.7 70 +20 +20 1010.4 1001.0
20 16.06 З 3-3
{4}
н/о н/о +18.1 +14.0 77 +18 +18 1010.3 1000.9
21 16.06 ЮЗ 2-2
{3}
н/о н/о +17.2 +13.5 79 +18 +18 1010.3 1000.9
22 16.06 З 3 н/о н/о +16.9 +13.5 80 +17 +17 1010.1 1000.7
23 16.06 З 3 н/о н/о +17.0 +12.5 75 +17 +17 1010.0 1000.6
00 17.06 З 4-4
{4}
н/о н/о +16.9 +12.4 75 +16 +16 1010.0 1000.6
01 17.06 СЗ 2 н/о н/о +17.1 +11.7 71 +17 +17 1010.2 1000.8
02 17.06 З 2 н/о н/о +16.4 +12.3 77 +17 +17 1010.1 1000.7
03 17.06 З 1-2
{3}
н/о н/о +17.3 +12.6 74 +18 +18 1010.2 1000.8
04 17.06 СЗ 2 н/о н/о +18.0 +12.4 70 +19 +19 1010.2 1000.8
05 17.06 З 2-3
{3}
н/о н/о +18.3 +13.9 76 +19 +19 1010.5 1001.1
06 17.06 СЗ 3-4
{4}
н/о н/о +18.1 +13.2 73 +18 +18 1010.4 1001.1 +16.3 +20.3
07 17.06 З 2 н/о н/о +19.8 +13.9 69 +22 +22 комфорт 1010.2 1000.9
08 17.06 Ю 2 н/о н/о +20.5 +14.4 68 +24 +24 комфорт 1010.1 1000.8
09 17.06 Ю 3-3
{4}
н/о н/о +21.4 +15.0 67 +25 +25 комфорт 1010.2 1000.9
10 17.06 Ю 3 н/о н/о +21.9 +14.3 62 +25 +25 комфорт 1009.9 1000.7
11 17.06 ЮВ 4 н/о н/о +22.0 +15.0 64 +25 +25 комфорт 1009.7 1000.4
12 17.06 Ю 3-3
{4}
н/о н/о +23.3 +15.4 61 +28 +28 душно 1009.3 1000.1
13 17.06 З 4 н/о н/о +24.0 +13.1 51 +26 +26 жарко 1009.3 1000.1
14 17.06 З 4-5
{5}
н/о н/о +24.7 +11.8 44 +26 +26 жарко 1008.9 999.7
15 17.06 З 4-4
{6}
н/о н/о +23.4 +13.8 55 +27 +27 душно 1008.7 999.5
16 17.06 ЮЗ 4 н/о н/о +21.9 +15.2 66 +25 +25 комфорт 1008.4 999.2
17 17.06 ЮЗ 3 н/о н/о +21.9 +15.9 69 +26 +26 душно 1008.0 998.8
18 17.06 ЮЗ 3-4
{5}
н/о н/о +21.7 +14.9 65 +25 +25 комфорт 1008.1 998.9 +18.1 +24.7
19 17.06 ЮЗ 4-4
{5}
н/о н/о +20.8 +16.2 75 +24 +24 комфорт 1008.0 998.7
20 17.06 З 5-9
{9}
н/о н/о +21.0 +14.5 66 +24 +24 комфорт 1008.0 998.7
21 17.06 З 6-7
{10}
н/о н/о +20.2 +14.1 68 +22 +22 комфорт 1008.1 998.8
22 17.06 З 4 н/о н/о +19.4 +14.7 74 +21 +21 комфорт 1008.1 998.8
23 17.06 З 3 н/о н/о +18.7 +15.1 80 +20 +20 1008.3 999.0
00 18.06 ЮЗ 3-4
{4}
н/о н/о +18.4 +14.7 79 +19 +19 1008.5 999.2
01 18.06 ЮЗ 4-5
{5}
н/о н/о +18.3 +14.2 77 +19 +19 1008.4 999.0
02 18.06 З 4 н/о н/о +18.0 +14.7 81 +18 +18 1008.5 999.1
03 18.06 ЮЗ 6-6
{6}
н/о н/о +17.4 +14.5 83 +17 +17 1008.6 999.2
04 18.06 ЮЗ 5 н/о н/о +17.6 +14.3 81 +17 +17 1008.6 999.2
05 18.06 ЮЗ 4 н/о н/о +18.5 +13.7 74 +19 +19 1008.7 999.4
06 18.06 ЮЗ 4-5
{5}
н/о н/о +18.8 +13.2 70 +20 +20 1008.5 999.2 +17.3 +21.7
07 18.06 ЮЗ 4-4
{6}
н/о н/о +19.2 +14.0 72 +21 +21 комфорт 1008.5 999.2
08 18.06 ЮЗ 5-6
{6}
н/о н/о +19.7 +14.7 73 +21 +21 комфорт 1008.6 999.3
09 18.06 З 7-8
{9}
н/о н/о +21.0 +14.4 66 +24 +24 комфорт 1008.9 999.6
10 18.06 З 8 н/о н/о +21.4 +14.5 65 +24 +24 комфорт 1009.2 999.9
11 18.06 З 8-11
{11}
н/о н/о +21.7 +13.9 61 +25 +25 комфорт 1009.4 1000.1
12 18.06 З 10-11
{12}
н/о н/о +22.0 +13.2 57 +25 +25 комфорт 1009.6 1000.4
13 18.06 З 8-10
{11}
н/о н/о +22.4 +13.2 56 +25 +25 комфорт 1009.6 1000.3
14 18.06 З 9 н/о н/о +23.0 +10.9 46 +25 +25 комфорт 1009.6 1000.4
15 18.06 З 6-9
{12}
н/о н/о +23.8 +11.4 46 +25 +25 комфорт 1009.6 1000.4
16 18.06 З 7-8
{9}
н/о н/о +23.1 +12.6 52 +26 +26 жарко 1009.4 1000.2
17 18.06 З 5-6
{8}
н/о н/о +22.5 +13.2 56 +25 +25 комфорт 1009.4 1000.2
18 18.06 ЮЗ 3-4
{6}
н/о н/о +20.9 +14.0 65 +24 +24 комфорт 1009.4 1000.1 +18.7 +24.0
19 18.06 З 4 н/о н/о +20.8 +15.1 70 +24 +24 комфорт 1009.4 1000.1
20 18.06 ЮЗ 5 н/о н/о +20.3 +14.1 68 +23 +23 комфорт 1009.6 1000.3
21 18.06 З 5-6
{7}
н/о н/о +19.1 +14.4 74 +20 +20 1010.1 1000.8
22 18.06 З 5-6
{8}
н/о н/о +19.0 +14.2 74 +20 +20 1010.4 1001.1
23 18.06 З 7 н/о н/о +18.7 +12.8 69 +19 +19 1010.8 1001.5
00 19.06 З 6-7
{7}
н/о н/о +18.0 +12.0 68 +17 +17 1011.1 1001.8
01 19.06 З 5 н/о н/о +17.8 +12.2 70 +17 +17 1011.2 1001.8
02 19.06 З 6-7
{7}
н/о н/о +17.7 +12.2 70 +17 +17 1011.2 1001.8
03 19.06 ЮЗ 6-8
{8}
н/о н/о +17.5 +12.1 71 +17 +17 1011.1 1001.7
04 19.06 ЮЗ 6 н/о н/о +17.7 +12.5 72 +17 +17 1011.0 1001.6
05 19.06 ЮЗ 6 н/о н/о +17.8 +12.8 73 +17 +17 1011.2 1001.8
06 19.06 ЮЗ 7-8
{9}
н/о н/о +18.4 +13.6 74 +18 +18 1011.0 1001.6 +17.4 +20.9
07 19.06 ЮЗ 7-8
{10}
н/о н/о +18.9 +13.4 70 +19 +19 1010.9 1001.5
08 19.06 ЮЗ 8-10
{10}
н/о н/о +18.8 +13.6 72 +19 +19 1011.1 1001.7
09 19.06 ЮЗ 9-11
{11}
н/о н/о +19.4 +13.1 67 +20 +20 1010.8 1001.5
10 19.06 ЮЗ 8 н/о н/о +20.1 +13.3 65 +22 +22 комфорт 1010.4 1001.1
11 19.06 ЮЗ 9 н/о н/о +20.4 +13.4 64 +22 +22 комфорт 1010.1 1000.8
12 19.06 ЮЗ 8-10
{11}
н/о н/о +20.5 +13.8 65 +22 +22 комфорт 1009.5 1000.2
13 19.06 З 6-10
{14}
н/о н/о +20.6 +13.4 63 +23 +23 комфорт 1009.4 1000.1
14 19.06 штиль 0 н/о н/о +15.6 +11.5 77 +15 +15 1011.1 1001.7
15 19.06 З 6-7
{11}
н/о н/о +17.4 +13.5 78 +17 +17 1009.8 1000.4
16 19.06 ЮЗ 6 н/о н/о +17.5 +14.5 83 +17 +17 1009.6 1000.2
17 19.06 ЮЗ 7-7
{10}
н/о н/о +18.1 +15.5 85 +18 +18 1009.6 1000.2
18 19.06 З 7-9
{11}
н/о н/о +17.9 +14.9 83 +17 +17 1010.0 1000.6 +15.4 +21.1
19 19.06 ЮЗ 7 н/о н/о +18.1 +15.2 83 +18 +18 1009.9 1000.5
20 19.06 ЮЗ 6-6
{7}
н/о н/о +17.6 +15.2 86 +17 +17 1010.2 1000.8
21 19.06 ЮЗ 5-5
{6}
н/о н/о +17.2 +15.5 90 +17 +17 1010.6 1001.2
22 19.06 ЮЗ 6-6
{6}
н/о н/о +17.4 +15.6 89 +17 +17 1010.8 1001.4
23 19.06 З 3-4
{6}
н/о н/о +17.2 +15.1 87 +17 +17 1011.1 1001.7
00 20.06 СЗ 1-2
{4}
н/о н/о +16.6 +14.9 90 +17 +17 1011.3 1001.9
01 20.06 ЮЗ 2-3
{3}
н/о н/о +16.5 +14.5 88 +17 +17 1011.6 1002.2
02 20.06 З 2-2
{3}
н/о н/о +16.3 +14.2 87 +16 +16 1011.9 1002.5
03 20.06 З 2-3
{3}
н/о н/о +16.0 +14.4 90 +16 +16 1012.1 1002.7
04 20.06 ЮЗ 2-2
{3}
н/о н/о +16.4 +14.4 88 +16 +16 1012.3 1002.9
05 20.06 ЮЗ 1 н/о н/о +17.1 +15.1 88 +18 +18 1012.4 1003.0
06 20.06 ЮЗ 2-2
{3}
н/о н/о +17.6 +15.1 85 +18 +18 1012.7 1003.3 +16.0 +18.2
07 20.06 Ю 2 н/о н/о +19.9 +15.7 77 +23 +23 комфорт 1012.7 1003.4
08 20.06 Ю 2 н/о н/о +20.2 +15.3 73 +23 +23 комфорт 1012.8 1003.5
09 20.06 ЮВ 3-3
{3}
н/о н/о +21.0 +14.4 66 +24 +24 комфорт 1012.8 1003.5
10 20.06 ЮВ 3 н/о н/о +20.7 +13.8 65 +24 +24 комфорт 1012.8 1003.5
11 20.06 ЮВ 3 н/о н/о +20.9 +13.8 64 +24 +24 комфорт 1012.8 1003.5
12 20.06 ЮВ 4-4
{5}
н/о н/о +21.1 +12.6 58 +23 +23 комфорт 1012.6 1003.3
13 20.06 ЮВ 4-4
{5}
н/о н/о +21.4 +14.6 65 +24 +24 комфорт 1012.5 1003.3
14 20.06 ЮВ 3 н/о н/о +21.6 +15.3 67 +25 +25 комфорт 1012.3 1003.1
15 20.06 ЮВ 3-4
{4}
н/о н/о +21.8 +15.5 67 +25 +25 комфорт 1012.0 1002.7
16 20.06 ЮВ 3 н/о н/о +21.7 +16.4 72 +26 +26 душно 1011.6 1002.3
17 20.06 ЮВ 3 н/о н/о +21.6 +17.5 77 +26 +26 душно 1011.4 1002.1
18 20.06 ЮВ 3-3
{4}
н/о н/о +21.1 +18.8 87 +25 +25 комфорт 1011.3 1002.0 +17.6 +22.1
19 20.06 ЮВ 4-5
{5}
н/о н/о +21.1 +18.3 84 +25 +25 комфорт 1011.3 1002.0
20 20.06 Ю 6 н/о н/о +21.2 +17.2 78 +25 +25 комфорт 1011.4 1002.2

 

Местоположение метеостанции Липери Туискаванлуото (Финляндия): широта 62.55 долгота 29.67 высота над уровнем моря 78 м.

В архиве по умолчанию представлена погода в Липери Туискаванлуото за последнюю неделю. Архивные данные за месяц целиком и за предыдущие месяцы, начиная с января 2011 года, Вы можете получить, выбрав интересующий диапазон дат из раскрывающегося списка и нажав кнопку "Ввод!".


*Определитесь, кто Вы:
робот инопланетянин человек

Внимание! Время в таблицах - всемирное. Для получения местного времени необходимо прибавить поправку, которая равна 1 ч.

Смотрите также архив погоды в соседних городах и на ближайших метеорологических станциях:

Погода в Йоэнсуу (Финляндия) (6 км)
Погода в Йоэнсуу аэропорту (Финляндия) (13 км)
Погода в Тохмаярви (Финляндия) (49 км)
Погода в Вяртсиле (Карелия, Россия) (66 км)
Погода в Мекриярви (Финляндия) (71 км)
Погода в Савонлинне (Финляндия) (77 км)
Погода в Рантасалми Руккаслю (Финляндия) (79 км)
Погода в Юуке (Финляндия) (79 км)
Погода в Лаукансаари (Финляндия) (85 км)
Погода в Лиексе (Финляндия) (88 км)

Пояснения к столбцам:

Ветер - указаны скорость ветра в м/с - средняя за 10 мин, порывы в срок и между сроками (в фигурных скобках) и направление, откуда дует ветер: С - северный, СВ - северо-восточный, В - восточный, ЮВ - юго-восточный, Ю - южный, ЮЗ - юго-западный, З - западный, СЗ - северо-западный.
Видимость - горизонтальная дальность видимости в метрах или километрах. При видимости от 1 до 10 км при отсутствии осадков обычно наблюдается дымка, при ухудшении видимости до 1 км и менее - туман. В сухую погоду видимость может ухудшаться дымом, пылью или мглою.
Явления - указаны атмосферные явления, наблюдавшиеся в срок или в последний час перед сроком; фигурными скобками обозначены явления, наблюдавшиеся между сроками (за 1-3 часа до срока); квадратными скобками обозначены град или гололедные отложения с указанием их диаметра в мм.
Облачность - указаны через наклонную черту общая и нижняя облачность в баллах и высота нижней границы облаков в метрах; квадратными скобками обозначены формы облаков: Ci - перистые, Cs - перисто-слоистые, Cc - перисто-кучевые, Ac - высококучевые, As - высокослоистые, Sc - слоисто-кучевые, Ns - слоисто-дождевые, Cu - кучевые, Cb - кучево-дождевые. Подробнее классификацию облаков см. в Атласе облаков (PDF).
T - Температура воздуха - температура, измеренная на высоте 2 м над землей.
Td - Температура точки росы - температура, при понижении до которой содержащийся в воздухе водяной пар достигнет насыщения.
f - Относительная влажность воздуха - влажноcть воздуха, измеренная на высоте 2 м над землей.
Te - Эффективная температура - температура, которую ощущает одетый по сезону человек в тени. Характеристика душности погоды. При расчете учитывается влияние влажности воздуха и скорости ветра на теплоощущения человека.
Tes - Эффективная температура на солнце - температура, которую ощущает человек, с поправкой на солнечный нагрев. Характеристика знойности погоды. Зависит от высоты солнца над горизонтом, облачности и скорости ветра. Ночью, в пасмурную погоду, а также при ветре 12 м/с и более поправка равна нулю.
P - Атмосферное давление - приведенное к уровню моря атмосферное давление.
Po - Атмосферное давление - измеренное на уровне метеостанции атмосферное давление.
Tmin - Минимальная температура - минимум температуры воздуха на высоте 2 м над землей.
Tmax - Максимальная температура - максимум температуры воздуха на высоте 2 м над землей.
R - Количество осадков - Количество выпавших осадков за период времени, мм. При наведении курсора мыши на число - период времени, за который выпало указанное количество осадков.
R24 - Количество осадков - Количество выпавших осадков за 24 часа, мм.
S - Снежный покров - Высота снежного покрова, см. При наведении курсора мыши на число - состояние снежного покрова и степень покрытия местности в баллах.